Wetbulb
47.98 47.52 48.23 47.90 48.14 47.07 46.33 46.58 43.58 39.20 40.94 42.38 41.64 43.00 43.00 42.88 44.09 42.58 42.56 48.55 50.52 52.43 50.50 47.28 45.85 44.55 43.95 42.70 42.05 41.92 42.28 42.72 43.20 43.97 44.24 44.73 45.37 45.94
49.39 48.34 48.10 47.83 47.76 46.64 45.92 46.33 44.17 42.34 39.91 43.02 42.27 42.83 43.24 42.87 44.76 40.60 40.86 45.88 50.00 49.11 47.06 45.39 44.31 43.61 42.87 41.13 40.88 41.05 41.67 42.05 42.49 42.79 43.25 43.87 44.45 44.84
50.30 49.03 48.25 47.70 47.12 45.76 45.20 44.97 44.17 44.07 40.71 41.48 43.16 42.56 39.09 39.38 41.23 39.90 41.53 42.34 45.07 47.81 46.10 44.37 43.64 43.30 41.46 40.27 40.17 40.49 40.89 41.10 41.04 41.36 42.07 42.96 43.43 43.64
50.18 49.30 48.61 48.72 46.64 46.63 46.01 45.06 45.07 43.97 41.08 39.83 39.63 40.04 39.50 39.34 39.92 39.55 40.86 42.56 42.05 46.42 45.59 44.06 43.16 42.35 40.68 40.05 39.64 39.69 39.61 39.19 39.37 39.91 40.82 41.31 41.49 41.73
50.27 49.51 49.73 48.31 47.06 45.78 46.11 45.07 43.92 44.34 40.77 39.28 37.16 39.79 39.07 38.20 36.99 38.59 38.34 37.36 40.18 43.72 44.72 43.46 42.32 42.39 40.81 39.81 39.62 39.05 38.06 37.47 38.36 39.18 39.86 39.43 39.66 40.48
48.62 49.56 49.38 48.65 48.87 46.48 46.11 45.45 44.13 42.32 40.57 38.19 37.68 38.45 38.53 37.81 38.24 36.37 34.96 35.69 35.74 38.60 40.12 39.40 40.11 41.57 41.34 39.99 39.12 37.69 36.54 36.49 38.01 39.09 39.04 38.64 38.65 39.07
46.60 47.12 47.77 48.16 47.29 48.26 46.84 45.14 44.16 42.55 40.39 39.24 37.95 37.30 36.92 35.74 35.87 36.52 34.98 34.23 32.51 32.85 32.95 34.34 35.20 35.81 34.36 37.47 36.57 37.16 36.13 36.59 37.36 38.36 38.05 38.08 38.00 38.09
45.77 45.58 45.90 44.78 46.55 48.15 47.84 47.26 46.81 44.18 41.72 39.78 38.19 37.72 38.36 38.46 37.77 35.32 33.41 31.78 30.16 34.73 32.97 32.50 33.21 29.91 30.67 30.62 35.68 36.79 36.43 36.27 36.76 37.49 37.11 37.47 37.45 37.64
46.98 45.99 45.19 45.79 45.87 46.57 47.37 47.00 46.80 47.16 46.31 43.84 40.60 39.69 37.50 37.77 36.57 34.24 33.53 33.05 31.95 32.64 31.76 29.18 29.61 29.07 30.01 32.05 35.97 36.07 36.64 35.79 36.36 36.88 36.87 36.83 36.96 37.10
46.78 46.21 45.71 44.95 45.13 45.14 45.30 44.65 43.90 44.85 44.96 43.12 41.60 39.41 38.55 38.06 37.63 36.98 35.37 31.28 30.90 30.97 29.86 26.93 28.97 27.61 27.59 28.58 34.02 35.45 34.39 34.70 35.71 35.74 36.02 35.84 35.71 35.82
44.61 44.53 44.28 43.23 44.72 45.90 41.98 38.46 37.00 37.36 41.42 42.19 41.29 41.35 41.38 40.87 38.48 34.38 31.36 30.63 27.40 28.20 29.35 28.25 26.19 26.74 27.00 26.85 27.83 34.41 33.34 33.34 33.99 34.09 34.13 34.34 34.48 34.62
41.63 41.69 43.46 42.16 43.77 44.45 38.78 36.58 34.81 35.59 36.87 37.51 37.88 38.61 38.93 39.35 39.20 35.38 32.94 31.13 28.71 27.14 28.60 26.64 26.18 25.61 23.59 27.09 26.17 25.64 25.56 30.62 32.04 32.20 32.78 32.93 33.12 28.32
39.34 38.86 40.41 42.88 43.64 42.90 39.65 37.15 36.00 35.78 36.07 32.22 31.05 30.36 29.90 30.10 30.15 30.96 31.91 32.67 28.29 27.31 29.53 26.26 24.77 25.58 24.16 24.06 25.14 24.87 24.35 24.76 24.96 26.28 29.91 30.81 31.89 31.33
38.22 38.82 39.48 42.25 43.18 41.89 39.02 39.20 38.88 36.13 32.05 30.53 29.49 28.25 28.39 28.65 28.95 28.85 28.56 27.62 28.67 29.33 29.32 27.29 22.78 23.24 17.96 20.42 21.74 23.73 23.50 24.33 24.27 24.47 25.10 27.99 29.73 30.35
38.92 39.38 40.53 42.19 42.36 41.01 38.87 39.57 37.65 32.32 30.71 29.27 28.34 28.04 28.92 28.68 28.27 27.49 26.90 26.93 27.00 27.71 28.01 27.87 24.93 25.17 20.16 15.81 19.69 22.28 23.09 23.88 24.24 23.57 24.18 24.58 24.22 24.59
39.40 39.56 40.40 41.57 40.66 37.84 38.92 38.03 32.63 31.88 31.28 29.71 28.70 28.64 28.53 27.70 26.61 26.69 24.81 24.94 25.03 25.06 26.97 27.55 27.08 24.68 18.45 21.66 20.35 19.68 20.87 16.01 22.17 22.82 23.73 24.26 24.35 24.35
37.83 37.25 36.71 35.65 34.73 35.06 33.33 32.17 32.42 32.58 30.46 29.45 28.26 27.28 27.08 26.50 26.20 26.35 25.07 24.59 21.67 21.94 22.75 25.35 26.76 25.81 24.26 19.90 9.30 16.42 14.84 14.61 20.66 21.67 21.95 20.88 22.48 23.11
36.33 34.64 34.03 33.90 33.95 33.19 31.20 30.73 31.45 31.28 29.43 28.91 27.99 27.30 25.74 24.98 23.99 24.00 24.25 22.58 21.96 22.40 20.99 21.84 20.82 19.45 18.85 20.66 23.66 13.94 15.36 12.90 17.90 20.43 20.70 19.92 19.61 22.26
34.22 33.59 32.80 32.71 32.31 31.52 30.77 30.57 29.01 29.09 29.42 28.32 27.18 26.24 25.31 24.10 23.86 22.69 21.58 21.20 21.03 21.00 21.25 21.66 18.29 13.19 12.99 13.53 18.55 25.12 14.02 17.50 19.67 19.12 20.19 19.18 18.85 21.43
33.57 33.01 32.35 32.42 31.80 30.63 30.34 28.84 28.23 28.34 27.86 27.01 26.22 25.49 24.44 23.83 21.58 21.24 21.13 19.02 18.41 17.61 14.56 15.68 16.39 16.71 12.48 11.43 14.34 17.95 25.13 19.27 15.95 17.94 19.50 21.55 23.08 27.55
32.56 32.33 32.45 32.01 31.13 30.45 29.31 28.88 28.49 27.57 27.24 26.56 25.83 25.29 24.76 23.12 20.61 20.41 20.70 23.02 20.17 13.93 12.98 16.81 18.77 23.61 17.59 16.34 14.21 17.32 20.66 25.93 24.75 17.07 18.77 18.66 18.20 17.85
32.09 31.53 31.40 31.16 30.38 29.46 28.92 28.35 27.97 28.18 26.44 26.04 25.52 24.39 23.14 22.19 21.20 20.67 19.05 17.16 16.51 14.32 13.11 10.17 14.41 12.05 12.93 15.69 14.94 15.62 18.72 20.91 23.24 25.38 26.33 24.70 10.19 16.46
31.06 30.66 30.33 29.79 29.53 29.08 28.34 27.92 26.95 26.10 26.01 24.87 24.00 23.02 22.41 21.74 22.05 21.56 20.36 17.33 16.91 11.80 10.45 11.71 12.34 12.21 11.71 12.30 17.41 12.09 11.67 15.54 17.22 18.46 20.17 25.59 27.51 28.12
MSLP
1021.35 1021.67 1022.10 1022.35 1022.67 1023.07 1023.52 1024.08 1025.14 1026.83 1027.16 1027.03 1027.18 1027.19 1027.40 1027.79 1028.04 1028.62 1028.92 1028.93 1028.82 1029.30 1029.58 1030.05 1030.46 1030.60 1030.77 1030.99 1031.06 1031.07 1031.01 1030.93 1030.80 1030.69 1030.42 1030.17 1030.01 1029.81
1020.69 1021.23 1021.64 1021.90 1022.24 1022.72 1023.16 1023.62 1024.22 1024.86 1025.97 1026.26 1026.60 1026.73 1027.02 1027.56 1027.85 1028.21 1028.57 1028.87 1028.78 1029.41 1029.70 1030.10 1030.39 1030.58 1030.89 1031.19 1031.31 1031.05 1031.16 1030.95 1030.76 1030.70 1030.42 1030.15 1029.83 1029.60
1020.17 1020.59 1021.08 1021.38 1021.90 1022.36 1022.82 1023.23 1023.95 1024.34 1025.31 1026.12 1026.17 1026.42 1026.94 1027.38 1027.85 1028.26 1028.59 1028.95 1028.91 1029.36 1029.68 1030.12 1030.33 1030.51 1030.74 1030.96 1031.31 1031.14 1031.28 1031.04 1030.95 1030.70 1030.41 1030.10 1029.86 1029.71
1019.47 1020.07 1020.45 1020.94 1021.37 1021.82 1022.31 1022.79 1023.30 1023.76 1024.64 1025.67 1025.93 1026.37 1026.56 1026.88 1027.55 1028.14 1028.32 1028.95 1028.97 1029.22 1029.65 1030.13 1030.28 1030.58 1030.74 1030.88 1030.95 1030.90 1031.10 1030.94 1030.96 1030.71 1030.40 1030.03 1029.83 1029.84
1018.85 1019.44 1019.79 1020.36 1020.91 1021.35 1021.73 1022.24 1022.78 1023.33 1023.88 1024.97 1025.69 1026.08 1026.37 1026.81 1027.53 1028.04 1028.23 1028.77 1028.87 1029.13 1029.41 1030.01 1030.12 1030.30 1030.37 1030.59 1030.80 1030.85 1030.82 1030.71 1030.82 1030.58 1030.31 1030.04 1029.93 1029.68
1018.28 1018.85 1019.45 1019.76 1020.21 1020.81 1021.32 1021.67 1022.29 1023.27 1023.68 1024.35 1025.24 1025.70 1026.10 1026.67 1027.27 1027.84 1028.42 1028.72 1029.05 1029.15 1029.27 1029.53 1029.64 1029.86 1030.18 1030.33 1030.30 1030.64 1030.44 1030.38 1030.57 1030.52 1030.16 1029.95 1029.75 1029.53
1018.27 1018.55 1018.89 1019.35 1019.74 1020.05 1020.67 1021.10 1021.67 1022.48 1023.60 1024.08 1024.88 1025.20 1025.57 1026.34 1026.52 1026.93 1027.84 1028.48 1029.10 1029.22 1029.56 1029.51 1029.58 1029.85 1030.21 1030.32 1030.26 1030.05 1030.10 1030.12 1030.28 1030.19 1029.96 1029.77 1029.53 1029.26
1018.12 1018.58 1018.94 1019.16 1019.44 1019.74 1019.97 1020.33 1020.75 1021.55 1022.66 1023.55 1024.38 1024.76 1024.73 1025.34 1025.90 1026.60 1027.39 1028.27 1029.04 1028.72 1029.01 1029.26 1029.21 1029.87 1029.86 1030.12 1030.00 1029.72 1029.71 1029.90 1030.02 1029.97 1029.75 1029.43 1029.23 1028.91
1017.81 1018.15 1018.72 1019.18 1019.42 1019.88 1019.97 1020.53 1020.76 1021.11 1021.40 1022.45 1023.32 1023.49 1024.00 1024.38 1025.36 1026.30 1026.75 1027.40 1028.05 1028.60 1028.77 1029.20 1029.32 1029.44 1029.61 1029.69 1029.61 1029.50 1029.44 1029.75 1029.74 1029.64 1029.31 1029.04 1028.75 1028.41
1017.45 1017.87 1018.44 1019.00 1019.45 1019.59 1019.84 1020.35 1020.81 1021.04 1021.44 1021.95 1022.45 1022.73 1023.10 1023.72 1024.47 1024.98 1026.09 1027.39 1028.27 1028.44 1028.80 1029.37 1029.14 1029.53 1029.49 1029.54 1029.32 1029.24 1029.44 1029.60 1029.47 1029.30 1029.01 1028.87 1028.53 1028.05
1017.55 1017.83 1018.23 1018.61 1019.00 1019.38 1019.88 1020.63 1021.01 1021.38 1021.61 1021.93 1022.05 1022.64 1023.01 1023.43 1024.09 1025.29 1026.30 1027.22 1028.22 1028.85 1029.00 1028.95 1029.43 1029.55 1029.37 1029.54 1029.44 1029.09 1029.42 1029.57 1029.39 1029.19 1028.92 1028.63 1028.22 1027.67
1017.49 1017.75 1018.31 1018.51 1018.78 1019.22 1019.52 1020.28 1021.08 1021.57 1021.81 1022.25 1022.72 1023.09 1023.34 1023.66 1024.23 1024.63 1025.71 1026.76 1027.84 1028.40 1028.51 1028.96 1029.59 1029.67 1029.91 1029.47 1029.87 1029.84 1029.78 1029.61 1029.29 1028.93 1028.73 1028.37 1027.90 1027.59
1017.73 1017.92 1017.94 1018.61 1018.90 1019.27 1019.62 1020.12 1020.51 1021.42 1022.18 1022.63 1023.32 1024.06 1024.43 1024.77 1025.30 1025.48 1025.78 1026.26 1027.08 1027.89 1028.32 1028.80 1029.42 1029.92 1030.23 1030.22 1030.21 1030.00 1029.89 1029.60 1029.32 1028.98 1028.58 1028.20 1027.66 1027.17
1017.67 1017.82 1018.05 1018.61 1019.02 1019.36 1019.84 1020.20 1020.85 1021.59 1022.31 1022.92 1023.57 1024.63 1025.10 1025.96 1026.32 1026.42 1026.72 1026.93 1026.99 1027.46 1028.03 1028.38 1029.36 1029.99 1030.58 1030.93 1030.62 1029.89 1029.55 1029.22 1029.11 1028.79 1028.34 1027.78 1027.19 1026.61
1017.65 1017.75 1018.10 1018.51 1019.07 1019.57 1020.13 1020.36 1020.89 1021.74 1022.43 1023.41 1023.95 1024.76 1025.34 1026.01 1026.78 1027.20 1027.27 1027.51 1028.01 1028.33 1028.51 1028.76 1029.35 1030.10 1030.79 1031.00 1030.76 1030.17 1029.74 1029.05 1028.88 1028.72 1028.02 1027.53 1026.94 1026.25
1017.79 1018.07 1018.19 1018.56 1019.35 1019.99 1020.53 1020.97 1021.39 1021.93 1022.38 1023.05 1024.01 1025.01 1025.59 1026.09 1026.85 1027.29 1027.78 1028.15 1028.56 1028.94 1028.92 1029.20 1029.79 1030.40 1030.76 1030.66 1030.47 1030.17 1030.09 1029.89 1028.75 1028.40 1027.81 1026.97 1026.28 1025.85
1018.04 1017.91 1018.23 1018.76 1019.63 1020.26 1021.07 1021.60 1021.96 1022.28 1022.81 1023.57 1024.23 1025.00 1025.61 1026.24 1027.01 1027.37 1027.96 1028.39 1028.65 1029.10 1029.57 1029.92 1030.19 1030.30 1030.24 1030.20 1030.32 1029.81 1029.67 1029.60 1029.10 1028.53 1027.98 1027.01 1025.77 1025.24
1017.89 1018.27 1018.91 1019.31 1019.67 1020.13 1020.87 1021.57 1021.93 1022.28 1023.07 1023.57 1024.22 1024.86 1025.45 1026.21 1026.93 1027.52 1028.00 1028.52 1029.04 1029.60 1030.09 1030.24 1030.23 1030.18 1030.15 1029.56 1029.47 1029.75 1029.60 1029.32 1028.81 1028.42 1028.06 1027.40 1025.55 1024.09
1017.85 1018.33 1018.72 1019.10 1019.58 1020.21 1020.98 1021.68 1022.29 1022.87 1023.20 1023.63 1024.19 1024.72 1025.29 1025.99 1026.78 1027.67 1028.36 1028.94 1029.58 1030.00 1030.23 1030.31 1030.39 1030.64 1030.59 1030.36 1029.72 1029.06 1029.40 1029.04 1028.63 1028.03 1027.42 1026.87 1025.84 1023.65
1017.76 1018.21 1018.59 1019.06 1019.61 1020.12 1020.79 1021.59 1022.31 1022.94 1023.52 1023.98 1024.39 1024.91 1025.50 1026.03 1027.03 1027.89 1028.55 1029.08 1029.56 1030.00 1030.37 1030.38 1030.43 1030.49 1030.60 1030.46 1030.30 1029.36 1028.83 1028.64 1028.30 1027.64 1026.78 1025.92 1025.04 1023.25
1017.66 1018.22 1018.64 1019.13 1019.55 1020.12 1020.73 1021.48 1021.98 1022.60 1023.30 1024.03 1024.63 1025.20 1025.72 1026.35 1027.26 1027.92 1028.55 1028.94 1029.47 1029.98 1030.34 1030.39 1030.18 1029.76 1030.32 1030.45 1030.44 1029.52 1028.41 1027.89 1027.58 1027.05 1026.41 1025.95 1024.89 1023.39
1017.93 1018.14 1018.62 1019.18 1019.74 1020.14 1020.57 1021.27 1022.11 1022.72 1023.35 1023.83 1024.79 1025.51 1026.11 1026.62 1027.29 1027.99 1028.49 1028.89 1029.49 1030.01 1030.43 1030.32 1030.21 1030.29 1030.31 1030.41 1030.21 1029.65 1028.57 1027.26 1026.90 1026.34 1025.67 1025.40 1025.18 1024.21
1017.95 1018.21 1018.62 1019.07 1019.57 1020.12 1020.59 1021.16 1021.78 1022.72 1023.38 1024.06 1024.70 1025.54 1026.10 1026.76 1027.37 1027.88 1028.34 1028.83 1029.24 1030.02 1030.25 1030.58 1030.42 1030.32 1030.29 1030.37 1029.90 1029.51 1028.99 1027.94 1026.91 1025.67 1024.78 1024.40 1023.76 1023.01
Wind_Speed
10 8 6 5 4 4 5 7 6 5 7 5 4 5 4 5 6 5 5 8 8 9 12 11 9 7 6 3 1 2 4 5 6 8 9 11 12 13
7 10 8 4 5 4 5 6 3 4 4 4 4 4 5 5 8 7 7 9 11 13 12 11 9 7 5 2 2 3 5 7 7 9 10 12 13 13
8 10 10 7 6 5 4 5 4 4 4 1 2 3 4 6 6 4 5 5 5 14 13 11 9 8 5 3 3 4 7 6 7 10 11 12 12 13
13 10 10 7 8 7 6 8 7 5 4 5 2 2 3 5 7 7 5 5 5 11 12 10 8 6 5 4 4 5 6 5 9 10 11 10 10 13
11 11 11 10 9 6 6 7 5 4 4 4 4 1 2 4 4 3 5 4 4 7 12 10 8 9 8 6 6 6 5 6 9 10 9 7 11 14
9 10 9 12 12 10 9 9 6 5 4 4 3 3 3 2 3 6 5 1 3 3 6 7 8 9 9 9 7 6 5 6 10 10 8 9 12 15
5 6 7 9 10 12 8 8 9 7 5 4 3 3 4 4 10 5 6 3 2 3 4 3 2 1 3 7 5 7 6 8 9 9 9 12 14 15
6 3 3 7 11 15 13 15 14 12 7 4 3 4 6 5 7 7 5 4 4 3 4 3 3 3 3 3 8 8 7 8 9 9 11 13 14 16
7 7 5 4 6 7 10 11 10 11 9 9 7 7 7 9 8 8 5 4 3 2 3 2 3 3 3 3 6 6 8 8 8 11 14 14 15 17
6 7 9 8 8 7 6 7 6 7 8 7 6 6 5 9 11 7 7 5 4 3 2 3 1 3 1 2 6 7 2 5 10 12 13 16 17 16
4 5 7 7 11 14 9 8 6 3 4 7 6 9 11 16 12 9 6 7 3 2 2 2 1 1 1 2 3 3 3 7 8 14 15 15 16 16
4 4 10 8 13 17 11 11 9 7 9 9 8 9 9 12 14 6 8 7 3 2 3 3 2 1 2 1 2 2 3 5 14 12 13 14 16 5
3 3 3 10 14 18 14 10 9 11 13 10 8 6 6 6 5 5 4 6 4 2 4 4 2 1 1 2 2 2 0 4 4 6 10 14 17 15
3 2 3 10 14 17 12 15 22 16 8 7 8 5 6 5 4 6 6 6 5 4 5 4 3 3 2 2 3 2 3 4 2 5 4 11 15 17
3 4 7 11 14 12 13 21 21 8 8 7 7 6 5 6 6 5 7 8 7 6 4 4 3 3 2 3 3 2 5 2 4 4 6 7 9 9
4 4 5 7 9 8 9 13 5 6 8 8 7 7 6 5 4 2 3 2 3 3 4 5 4 3 1 3 3 5 3 3 4 6 7 9 8 7
4 2 3 6 6 6 4 5 5 6 7 7 8 7 7 6 4 3 2 2 3 3 2 1 1 2 4 5 2 4 3 3 4 6 7 10 9 9
3 3 4 5 7 6 7 6 5 8 7 7 8 8 8 6 6 3 3 2 3 2 2 1 0 2 3 3 7 2 2 3 3 6 5 6 11 9
3 4 5 5 5 6 6 6 5 5 7 7 8 7 7 6 8 5 3 3 2 2 1 1 1 2 2 2 3 4 2 2 4 8 5 5 9 14
3 5 6 6 6 7 7 7 7 7 6 6 7 7 7 7 7 5 5 3 3 2 1 1 1 2 3 3 2 3 11 6 3 7 8 8 10 23
4 4 4 5 6 7 7 7 9 8 7 7 6 6 6 7 6 5 6 9 6 2 2 1 2 3 1 1 2 4 4 9 10 5 6 8 7 5
4 5 5 5 6 7 8 8 7 8 7 7 7 6 5 6 6 6 4 4 3 3 2 2 2 1 1 2 4 5 7 7 9 11 14 12 3 5
4 5 6 6 6 7 7 8 8 8 7 7 7 6 7 6 5 5 5 4 4 3 2 0 2 1 1 2 4 3 5 7 6 10 5 10 14 20
Wind_Direction
194 187 191 196 179 170 156 163 145 169 213 220 181 203 168 160 167 151 168 184 187 191 163 176 176 178 173 181 217 300 325 325 321 319 328 331 330 326
190 191 197 185 183 168 165 173 158 148 184 170 207 166 168 168 173 159 175 186 185 169 172 177 186 185 181 206 265 309 309 317 322 323 326 327 325 324
190 193 198 176 183 173 166 170 165 147 131 210 140 168 140 158 164 156 180 175 169 183 185 190 194 191 193 200 272 305 302 319 322 323 325 324 324 324
197 186 196 183 185 181 180 190 188 164 134 154 156 148 157 174 162 166 168 198 170 192 194 200 207 206 213 232 256 285 296 313 315 317 318 315 327 325
193 195 200 182 193 181 184 182 171 153 149 143 148 157 118 156 133 150 168 177 179 191 199 210 216 215 219 237 265 278 288 313 311 311 301 316 318 320
186 195 195 192 202 191 187 183 159 151 144 134 137 138 131 127 140 176 186 166 154 164 183 194 213 231 223 241 245 249 264 294 307 297 299 306 314 314
195 192 192 202 198 192 183 184 165 152 154 153 160 148 161 151 191 176 183 134 175 171 191 189 173 187 246 266 257 228 254 294 299 289 301 310 312 310
180 172 181 191 191 186 183 178 178 168 166 147 160 198 186 191 175 178 143 144 206 202 170 202 152 215 220 226 234 237 267 291 287 287 307 309 307 308
194 183 176 189 175 176 159 171 171 180 173 182 192 202 173 181 161 166 170 158 168 152 120 204 179 216 217 240 239 273 280 288 282 292 302 308 307 309
187 185 191 195 203 191 173 184 186 189 192 188 202 183 177 169 179 178 156 102 73 76 110 196 137 227 232 263 290 285 246 283 303 309 314 319 314 313
179 177 183 184 198 188 166 153 126 111 143 178 167 169 167 167 147 126 145 149 127 176 198 134 147 272 341 313 308 194 4 326 326 327 318 318 318 318
169 172 196 186 190 180 160 155 146 151 128 111 106 98 113 143 147 142 152 154 123 146 192 138 146 71 321 18 323 8 11 329 333 325 324 326 324 308
182 177 165 198 192 181 168 167 157 139 129 118 106 90 79 74 67 71 83 147 134 115 167 111 123 105 124 320 296 285 313 308 308 304 316 322 318 318
190 165 160 199 193 177 169 155 148 135 132 124 117 115 101 90 77 77 77 74 60 114 125 112 117 126 106 311 265 288 264 273 280 299 299 315 315 316
167 172 179 190 177 174 173 158 147 143 136 138 137 128 119 118 111 85 72 77 67 73 83 79 108 109 143 207 268 287 324 299 308 304 315 318 313 314
145 169 176 167 150 137 165 159 143 154 154 143 133 120 117 120 117 107 93 100 93 80 67 90 113 136 208 238 225 277 236 289 310 313 309 308 304 291
141 104 119 125 136 143 124 131 134 142 140 137 136 135 133 129 124 105 103 97 90 104 97 81 123 204 232 211 269 248 257 253 259 292 314 306 295 288
134 132 147 158 162 153 152 151 152 146 144 140 138 142 142 139 131 103 92 91 106 118 134 170 17 353 347 300 203 246 273 260 280 292 283 288 295 299
147 159 164 161 151 147 149 156 144 145 137 140 141 141 137 133 131 127 114 121 112 126 127 104 70 95 22 314 297 311 196 262 294 304 276 270 286 292
157 169 170 164 157 153 151 143 136 136 135 136 136 138 140 133 135 146 150 137 130 121 92 44 126 162 159 213 270 266 287 280 249 288 300 298 277 281
151 154 158 161 157 152 144 147 147 146 143 139 138 139 137 137 139 143 156 156 144 115 141 188 228 272 215 29 326 282 268 270 291 268 292 299 296 293
165 159 157 155 159 154 150 146 145 147 144 139 141 138 137 140 146 151 145 126 131 142 170 254 302 32 76 201 268 288 299 305 298 295 285 262 187 286
170 159 152 151 152 154 149 150 143 144 143 139 140 144 144 142 139 138 138 138 137 142 169 295 313 50 227 210 305 280 289 307 313 326 300 287 290 295